• In Uzbekistan
  • List of Countries
  • For 7 days
  • Water Temperature
  • Satellite Maps
  • Weather Map
  • Weather Widgets
  • user-avatar
    Login

    Hourly Weather Mapastepec

    Today, 19 August, Sunday

    Time Temperature Precipitation Wind Pressure Humidity
    00:00 +28°C° 1 mm 1 mps 757 mmHg 82%
    01:00 +28°C° 0.7 mm 1 mps 756 mmHg 82%
    02:00 +27°C° 0.7 mm 1 mps 756 mmHg 82%
    03:00 +27°C° 0.7 mm 1 mps 756 mmHg 82%
    04:00 +27°C° 0.1 mm 1 mps 756 mmHg 81%
    05:00 +27°C° 0.1 mm 1 mps 756 mmHg 81%
    06:00 +26°C° 0.1 mm 1 mps 756 mmHg 80%
    07:00 +28°C° 0 mm 1 mps 756 mmHg 75%
    08:00 +30°C° 0 mm 1 mps 756 mmHg 70%
    09:00 +32°C° 0 mm 1 mps 756 mmHg 64%
    10:00 +33°C° 0.1 mm 1 mps 756 mmHg 61%
    11:00 +34°C° 0.1 mm 1 mps 756 mmHg 57%
    12:00 +36°C° 0.1 mm 1 mps 756 mmHg 54%
    13:00 +36°C° 0.4 mm 2 mps 755 mmHg 56%
    14:00 +36°C° 0.4 mm 2 mps 755 mmHg 58%
    15:00 +36°C° 0.4 mm 2 mps 754 mmHg 59%
    16:00 +35°C° 0.5 mm 2 mps 754 mmHg 65%
    17:00 +32°C° 0.5 mm 1 mps 754 mmHg 71%
    18:00 +31°C° 0.5 mm 1 mps 754 mmHg 77%
    19:00 +30°C° 0.1 mm 1 mps 755 mmHg 78%
    20:00 +29°C° 0.1 mm 1 mps 755 mmHg 79%
    21:00 +28°C° 0.1 mm 1 mps 756 mmHg 79%
    22:00 +28°C° 0 mm 1 mps 756 mmHg 79%
    23:00 +28°C° 0 mm 1 mps 756 mmHg 78%

    Tomorrow, 20 August, Monday

    Time Temperature Precipitation Wind Pressure Humidity
    00:00 +27°C° 0 mm 1 mps 756 mmHg 77%
    01:00 +27°C° 0.2 mm 1 mps 756 mmHg 77%
    02:00 +27°C° 0.2 mm 1 mps 755 mmHg 77%
    03:00 +27°C° 0.2 mm 1 mps 755 mmHg 76%
    04:00 +27°C° 0 mm 2 mps 755 mmHg 76%
    05:00 +27°C° 0 mm 2 mps 755 mmHg 75%
    06:00 +27°C° 0 mm 2 mps 755 mmHg 75%
    07:00 +29°C° 0 mm 1 mps 755 mmHg 69%
    08:00 +31°C° 0 mm 1 mps 756 mmHg 62%
    09:00 +31°C° 0 mm 0 mps 756 mmHg 56%
    10:00 +34°C° 0.1 mm 1 mps 756 mmHg 55%
    11:00 +35°C° 0.1 mm 1 mps 756 mmHg 54%
    12:00 +37°C° 0.1 mm 2 mps 756 mmHg 53%
    13:00 +37°C° 0.5 mm 2 mps 755 mmHg 56%
    14:00 +36°C° 0.5 mm 2 mps 754 mmHg 58%
    15:00 +36°C° 0.5 mm 2 mps 754 mmHg 60%
    16:00 +34°C° 0.5 mm 2 mps 754 mmHg 66%
    17:00 +32°C° 0.5 mm 1 mps 754 mmHg 72%
    18:00 +31°C° 0.5 mm 1 mps 754 mmHg 78%
    19:00 +30°C° 0.5 mm 1 mps 755 mmHg 79%
    20:00 +30°C° 0.5 mm 1 mps 755 mmHg 80%
    21:00 +29°C° 0.5 mm 1 mps 756 mmHg 80%
    22:00 +29°C° 0.9 mm 1 mps 756 mmHg 80%
    23:00 +28°C° 0.9 mm 1 mps 757 mmHg 80%

    Day after tomorrow, 21 August, Tuesday

    Time Temperature Precipitation Wind Pressure Humidity
    00:00 +28°C° 0.9 mm 1 mps 757 mmHg 80%
    01:00 +28°C° 0.7 mm 1 mps 756 mmHg 80%
    02:00 +28°C° 0.7 mm 1 mps 756 mmHg 80%
    03:00 +27°C° 0.7 mm 1 mps 756 mmHg 80%
    04:00 +27°C° 0.1 mm 1 mps 756 mmHg 79%
    05:00 +27°C° 0.1 mm 1 mps 755 mmHg 79%
    06:00 +27°C° 0.1 mm 1 mps 755 mmHg 78%
    07:00 +29°C° 0 mm 1 mps 756 mmHg 72%
    08:00 +31°C° 0 mm 1 mps 756 mmHg 65%
    09:00 +33°C° 0 mm 1 mps 756 mmHg 59%
    10:00 +34°C° 0 mm 1 mps 756 mmHg 55%
    11:00 +37°C° 0 mm 2 mps 756 mmHg 52%
    12:00 +38°C° 0 mm 2 mps 756 mmHg 48%
    13:00 +37°C° 0.4 mm 2 mps 755 mmHg 54%
    14:00 +37°C° 0.4 mm 2 mps 755 mmHg 59%
    15:00 +36°C° 0.4 mm 3 mps 754 mmHg 64%
    16:00 +34°C° 0.6 mm 2 mps 754 mmHg 70%
    17:00 +32°C° 0.6 mm 2 mps 755 mmHg 76%
    18:00 +31°C° 0.6 mm 1 mps 755 mmHg 82%
    19:00 +30°C° 0.3 mm 1 mps 756 mmHg 82%
    20:00 +29°C° 0.3 mm 1 mps 756 mmHg 83%
    21:00 +28°C° 0.3 mm 1 mps 757 mmHg 83%
    22:00 +28°C° 0.4 mm 1 mps 757 mmHg 83%
    23:00 +28°C° 0.4 mm 1 mps 757 mmHg 82%

    22 August, Wednesday

    Time Temperature Precipitation Wind Pressure Humidity
    00:00 +28°C° 0.4 mm 1 mps 757 mmHg 82%
    01:00 +28°C° 0.2 mm 1 mps 757 mmHg 81%
    02:00 +27°C° 0.2 mm 1 mps 756 mmHg 81%
    03:00 +27°C° 0.2 mm 2 mps 756 mmHg 80%
    04:00 +27°C° 0.1 mm 2 mps 756 mmHg 80%
    05:00 +27°C° 0.1 mm 2 mps 756 mmHg 80%
    06:00 +27°C° 0.1 mm 2 mps 756 mmHg 79%
    07:00 +28°C° 0.1 mm 2 mps 757 mmHg 75%
    08:00 +30°C° 0.1 mm 2 mps 757 mmHg 71%
    09:00 +32°C° 0.1 mm 2 mps 757 mmHg 67%
    10:00 +32°C° 0.1 mm 2 mps 757 mmHg 65%
    11:00 +34°C° 0.1 mm 2 mps 756 mmHg 64%
    12:00 +35°C° 0.1 mm 2 mps 756 mmHg 62%
    13:00 +35°C° 0.2 mm 2 mps 755 mmHg 61%
    14:00 +36°C° 0.2 mm 2 mps 755 mmHg 59%
    15:00 +37°C° 0.2 mm 2 mps 754 mmHg 58%
    16:00 +35°C° 0.9 mm 2 mps 754 mmHg 65%
    17:00 +34°C° 0.9 mm 2 mps 755 mmHg 71%
    18:00 +31°C° 0.9 mm 2 mps 755 mmHg 78%
    19:00 +31°C° 0.7 mm 2 mps 756 mmHg 80%
    20:00 +30°C° 0.7 mm 2 mps 756 mmHg 81%
    21:00 +29°C° 0.7 mm 2 mps 757 mmHg 82%
    22:00 +29°C° 0.2 mm 2 mps 757 mmHg 82%
    23:00 +28°C° 0.2 mm 2 mps 757 mmHg 81%

    23 August, Thursday

    Time Temperature Precipitation Wind Pressure Humidity
    00:00 +28°C° 0.2 mm 2 mps 757 mmHg 80%
    01:00 +28°C° 0.2 mm 2 mps 756 mmHg 79%
    02:00 +28°C° 0.2 mm 2 mps 756 mmHg 78%
    03:00 +28°C° 0.2 mm 2 mps 756 mmHg 77%
    04:00 +28°C° 0.1 mm 2 mps 756 mmHg 77%
    05:00 +27°C° 0.1 mm 2 mps 756 mmHg 76%
    06:00 +27°C° 0.1 mm 2 mps 756 mmHg 76%
    07:00 +29°C° 0 mm 2 mps 756 mmHg 74%
    08:00 +30°C° 0 mm 2 mps 757 mmHg 71%
    09:00 +31°C° 0 mm 2 mps 757 mmHg 69%
    10:00 +34°C° 0 mm 2 mps 757 mmHg 63%
    11:00 +35°C° 0 mm 2 mps 756 mmHg 57%
    12:00 +37°C° 0 mm 2 mps 756 mmHg 51%
    13:00 +36°C° 0.3 mm 2 mps 755 mmHg 54%
    14:00 +36°C° 0.3 mm 2 mps 755 mmHg 58%
    15:00 +36°C° 0.3 mm 2 mps 754 mmHg 62%
    16:00 +34°C° 0.8 mm 2 mps 754 mmHg 68%
    17:00 +32°C° 0.8 mm 1 mps 754 mmHg 75%
    18:00 +31°C° 0.8 mm 1 mps 754 mmHg 81%
    19:00 +30°C° 0.2 mm 1 mps 755 mmHg 82%
    20:00 +29°C° 0.2 mm 1 mps 756 mmHg 82%
    21:00 +29°C° 0.2 mm 1 mps 756 mmHg 82%
    22:00 +28°C° 0.4 mm 1 mps 756 mmHg 82%
    23:00 +28°C° 0.4 mm 1 mps 756 mmHg 81%

    24 August, Friday

    Time Temperature Precipitation Wind Pressure Humidity
    00:00 +28°C° 0.4 mm 1 mps 756 mmHg 80%
    01:00 +27°C° 0.3 mm 1 mps 756 mmHg 80%
    02:00 +27°C° 0.3 mm 1 mps 755 mmHg 80%
    03:00 +26°C° 0.3 mm 1 mps 755 mmHg 79%
    04:00 +26°C° 0 mm 1 mps 755 mmHg 78%
    05:00 +26°C° 0 mm 1 mps 755 mmHg 77%
    06:00 +26°C° 0 mm 1 mps 755 mmHg 75%
    07:00 +28°C° 0 mm 1 mps 756 mmHg 68%
    08:00 +31°C° 0 mm 1 mps 756 mmHg 61%
    09:00 +33°C° 0 mm 1 mps 756 mmHg 54%
    10:00 +34°C° 0 mm 1 mps 756 mmHg 52%
    11:00 +37°C° 0 mm 2 mps 755 mmHg 50%
    12:00 +38°C° 0 mm 2 mps 755 mmHg 48%
    13:00 +37°C° 0.4 mm 2 mps 754 mmHg 53%
    14:00 +36°C° 0.4 mm 2 mps 754 mmHg 59%
    15:00 +35°C° 0.4 mm 2 mps 753 mmHg 65%
    16:00 +34°C° 1.4 mm 2 mps 754 mmHg 70%
    17:00 +32°C° 1.4 mm 1 mps 754 mmHg 76%
    18:00 +30°C° 1.4 mm 1 mps 754 mmHg 81%
    19:00 +30°C° 0.6 mm 1 mps 755 mmHg 82%
    20:00 +29°C° 0.6 mm 1 mps 755 mmHg 82%
    21:00 +28°C° 0.6 mm 1 mps 756 mmHg 83%
    22:00 +28°C° 0.5 mm 1 mps 756 mmHg 83%
    23:00 +28°C° 0.5 mm 1 mps 756 mmHg 83%
    Show more